Time,TemperatureF,DewpointF,PressureIn,WindDirection,WindDirectionDegrees,WindSpeedMPH,WindSpeedGustMPH,Humidity,HourlyPrecipIn,Conditions,Clouds,dailyrainin,SolarRadiationWatts/m^2,SoftwareType,DateUTC
2013-04-24 00:02:00,49.6,46.2,30.15,NNW,334,0.0,0.0,88,0.00,,,0.00,0,Wunderground v.1.15,2013-04-24 04:02:00,
2013-04-24 00:06:00,49.6,46.2,30.15,NNW,334,0.0,0.0,88,0.00,,,0.00,0,Wunderground v.1.15,2013-04-24 04:06:00,
2013-04-24 00:08:00,49.6,46.2,30.15,NNW,334,0.0,0.0,88,0.00,,,0.00,0,Wunderground v.1.15,2013-04-24 04:08:00,
2013-04-24 00:10:00,49.6,46.2,30.15,NNW,334,0.0,0.0,88,0.00,,,0.00,0,Wunderground v.1.15,2013-04-24 04:10:00,
2013-04-24 00:16:00,49.6,46.2,30.15,NNW,334,0.0,1.0,88,0.00,,,0.00,0,Wunderground v.1.15,2013-04-24 04:16:00,
2013-04-24 00:19:00,49.6,46.2,30.15,NNW,334,0.0,0.0,88,0.00,,,0.00,0,Wunderground v.1.15,2013-04-24 04:19:00,
2013-04-24 00:26:00,49.6,46.2,30.15,NNW,334,0.0,0.0,88,0.00,,,0.00,0,Wunderground v.1.15,2013-04-24 04:26:00,
2013-04-24 00:31:00,49.6,46.2,30.15,NNW,334,1.0,1.0,88,0.00,,,0.00,0,Wunderground v.1.15,2013-04-24 04:31:00,
2013-04-24 00:37:00,49.7,46.3,30.15,NNW,334,0.0,2.0,88,0.00,,,0.00,0,Wunderground v.1.15,2013-04-24 04:37:00,
2013-04-24 00:45:00,49.7,46.3,30.14,NNW,334,0.0,0.0,88,0.00,,,0.00,0,Wunderground v.1.15,2013-04-24 04:45:00,
2013-04-24 00:52:00,49.7,46.3,30.14,NNW,334,0.0,0.0,88,0.00,,,0.00,0,Wunderground v.1.15,2013-04-24 04:52:00,
2013-04-24 00:58:00,49.7,46.3,30.13,NNW,334,0.0,2.0,88,0.00,,,0.00,0,Wunderground v.1.15,2013-04-24 04:58:00,
2013-04-24 01:06:00,49.7,46.3,30.13,NNW,334,0.0,2.0,88,0.00,,,0.00,0,Wunderground v.1.15,2013-04-24 05:06:00,
2013-04-24 01:12:00,49.6,46.2,30.13,NNW,334,0.0,1.0,88,0.00,,,0.00,0,Wunderground v.1.15,2013-04-24 05:12:00,
2013-04-24 01:17:00,49.6,46.2,30.13,NNW,334,0.0,1.0,88,0.00,,,0.00,0,Wunderground v.1.15,2013-04-24 05:17:00,
2013-04-24 01:26:00,49.5,46.1,30.13,NNW,334,0.0,0.0,88,0.00,,,0.00,0,Wunderground v.1.15,2013-04-24 05:26:00,
2013-04-24 01:32:00,49.5,46.1,30.13,NNW,334,0.0,0.0,88,0.00,,,0.00,0,Wunderground v.1.15,2013-04-24 05:32:00,
2013-04-24 01:38:00,49.4,46.0,30.12,NNW,334,0.0,0.0,88,0.00,,,0.00,0,Wunderground v.1.15,2013-04-24 05:38:00,
2013-04-24 01:44:00,49.3,45.9,30.12,NNW,334,0.0,0.0,88,0.00,,,0.00,0,Wunderground v.1.15,2013-04-24 05:44:00,
2013-04-24 01:49:00,49.1,45.7,30.12,NNW,334,0.0,0.0,88,0.00,,,0.00,0,Wunderground v.1.15,2013-04-24 05:49:00,
2013-04-24 01:56:00,49.0,45.6,30.12,NNW,334,0.0,0.0,88,0.00,,,0.00,0,Wunderground v.1.15,2013-04-24 05:56:00,
2013-04-24 02:02:00,48.8,45.4,30.12,NNW,334,0.0,0.0,88,0.00,,,0.00,0,Wunderground v.1.15,2013-04-24 06:02:00,
2013-04-24 02:07:00,48.6,45.2,30.12,NNW,334,0.0,0.0,88,0.00,,,0.00,0,Wunderground v.1.15,2013-04-24 06:07:00,
2013-04-24 02:14:00,48.2,44.8,30.12,NNW,334,0.0,0.0,88,0.00,,,0.00,0,Wunderground v.1.15,2013-04-24 06:14:00,
2013-04-24 02:20:00,48.0,44.6,30.11,NNW,334,0.0,0.0,88,0.00,,,0.00,0,Wunderground v.1.15,2013-04-24 06:20:00,
2013-04-24 02:26:00,47.8,44.7,30.11,NNW,334,0.0,0.0,89,0.00,,,0.00,0,Wunderground v.1.15,2013-04-24 06:26:00,
2013-04-24 02:32:00,47.6,44.5,30.11,NNW,334,0.0,0.0,89,0.00,,,0.00,0,Wunderground v.1.15,2013-04-24 06:32:00,
2013-04-24 02:37:00,47.3,44.2,30.11,NNW,334,0.0,0.0,89,0.00,,,0.00,0,Wunderground v.1.15,2013-04-24 06:37:00,
2013-04-24 02:44:00,46.8,43.7,30.11,NNW,334,1.0,1.0,89,0.00,,,0.00,0,Wunderground v.1.15,2013-04-24 06:44:00,
2013-04-24 02:50:00,46.5,43.4,30.11,NNW,334,2.0,2.0,89,0.00,,,0.00,0,Wunderground v.1.15,2013-04-24 06:50:00,
2013-04-24 02:56:00,46.6,43.8,30.12,NNW,334,2.0,2.0,90,0.00,,,0.00,0,Wunderground v.1.15,2013-04-24 06:56:00,
2013-04-24 03:02:00,46.7,43.9,30.11,NNW,334,2.0,2.0,90,0.00,,,0.00,0,Wunderground v.1.15,2013-04-24 07:02:00,
2013-04-24 03:08:00,46.7,44.2,30.11,NNW,334,1.0,2.0,91,0.00,,,0.00,0,Wunderground v.1.15,2013-04-24 07:08:00,
2013-04-24 03:13:00,46.6,44.1,30.11,NNW,334,2.0,2.0,91,0.00,,,0.00,0,Wunderground v.1.15,2013-04-24 07:13:00,
2013-04-24 03:20:00,46.5,44.0,30.11,NNW,334,2.0,3.0,91,0.00,,,0.00,0,Wunderground v.1.15,2013-04-24 07:20:00,
2013-04-24 03:25:00,46.3,43.8,30.12,NNW,334,3.0,3.0,91,0.00,,,0.00,0,Wunderground v.1.15,2013-04-24 07:25:00,
2013-04-24 03:32:00,46.2,43.7,30.11,NNW,334,2.0,4.0,91,0.00,,,0.00,0,Wunderground v.1.15,2013-04-24 07:32:00,
2013-04-24 03:38:00,46.1,43.6,30.11,NNW,334,2.0,4.0,91,0.00,,,0.00,0,Wunderground v.1.15,2013-04-24 07:38:00,
2013-04-24 03:46:00,46.0,43.5,30.10,NNW,334,2.0,2.0,91,0.00,,,0.00,0,Wunderground v.1.15,2013-04-24 07:46:00,
2013-04-24 03:52:00,45.9,43.7,30.10,NNW,334,2.0,2.0,92,0.00,,,0.00,0,Wunderground v.1.15,2013-04-24 07:52:00,
2013-04-24 03:58:00,45.9,43.7,30.10,NNW,334,3.0,3.0,92,0.00,,,0.00,0,Wunderground v.1.15,2013-04-24 07:58:00,
2013-04-24 04:06:00,45.8,43.6,30.11,NNW,333,3.0,4.0,92,0.00,,,0.00,0,Wunderground v.1.15,2013-04-24 08:06:00,
2013-04-24 04:12:00,45.8,43.6,30.11,NNW,331,4.0,4.0,92,0.00,,,0.00,0,Wunderground v.1.15,2013-04-24 08:12:00,
2013-04-24 04:17:00,45.6,43.4,30.12,NW,324,4.0,4.0,92,0.00,,,0.00,0,Wunderground v.1.15,2013-04-24 08:17:00,
2013-04-24 04:24:00,45.5,43.3,30.12,NW,319,5.0,6.0,92,0.00,,,0.00,0,Wunderground v.1.15,2013-04-24 08:24:00,
2013-04-24 04:29:00,45.5,43.6,30.11,NW,319,5.0,5.0,93,0.00,,,0.00,0,Wunderground v.1.15,2013-04-24 08:29:00,
2013-04-24 04:36:00,45.5,43.6,30.11,NW,319,4.0,5.0,93,0.00,,,0.00,0,Wunderground v.1.15,2013-04-24 08:36:00,
2013-04-24 04:42:00,45.5,43.6,30.11,NW,319,3.0,5.0,93,0.00,,,0.00,0,Wunderground v.1.15,2013-04-24 08:42:00,
2013-04-24 04:47:00,45.5,43.6,30.11,NW,319,4.0,5.0,93,0.00,,,0.00,0,Wunderground v.1.15,2013-04-24 08:47:00,
2013-04-24 04:54:00,45.4,43.5,30.11,NW,319,4.0,4.0,93,0.00,,,0.00,0,Wunderground v.1.15,2013-04-24 08:54:00,
2013-04-24 05:00:00,45.4,43.5,30.11,NW,319,3.0,3.0,93,0.00,,,0.00,0,Wunderground v.1.15,2013-04-24 09:00:00,
2013-04-24 05:06:00,45.3,43.4,30.11,NW,319,3.0,3.0,93,0.00,,,0.00,0,Wunderground v.1.15,2013-04-24 09:06:00,
2013-04-24 05:12:00,45.2,43.3,30.11,NW,319,3.0,4.0,93,0.00,,,0.00,0,Wunderground v.1.15,2013-04-24 09:12:00,
2013-04-24 05:17:00,45.1,43.2,30.11,NW,319,3.0,4.0,93,0.00,,,0.00,0,Wunderground v.1.15,2013-04-24 09:17:00,
2013-04-24 05:25:00,45.0,43.1,30.12,NW,319,3.0,3.0,93,0.00,,,0.00,0,Wunderground v.1.15,2013-04-24 09:25:00,
2013-04-24 05:32:00,45.0,43.1,30.11,NW,319,3.0,3.0,93,0.00,,,0.00,0,Wunderground v.1.15,2013-04-24 09:32:00,
2013-04-24 05:37:00,45.0,43.1,30.11,NW,319,3.0,3.0,93,0.00,,,0.00,0,Wunderground v.1.15,2013-04-24 09:37:00,
2013-04-24 05:46:00,44.9,43.0,30.11,NW,319,2.0,3.0,93,0.00,,,0.00,0,Wunderground v.1.15,2013-04-24 09:46:00,
2013-04-24 05:52:00,44.9,43.0,30.11,NW,319,2.0,2.0,93,0.00,,,0.00,0,Wunderground v.1.15,2013-04-24 09:52:00,
2013-04-24 05:58:00,44.8,42.9,30.11,NW,319,2.0,3.0,93,0.00,,,0.00,0,Wunderground v.1.15,2013-04-24 09:58:00,
2013-04-24 06:06:00,44.8,43.2,30.12,NW,319,2.0,3.0,94,0.00,,,0.00,0,Wunderground v.1.15,2013-04-24 10:06:00,
2013-04-24 06:12:00,44.8,43.2,30.12,NW,319,2.0,3.0,94,0.00,,,0.00,0,Wunderground v.1.15,2013-04-24 10:12:00,
2013-04-24 06:18:00,44.8,43.2,30.12,NW,319,2.0,4.0,94,0.00,,,0.00,7,Wunderground v.1.15,2013-04-24 10:18:00,
2013-04-24 06:26:00,44.9,43.3,30.12,NW,317,3.0,5.0,94,0.00,,,0.00,14,Wunderground v.1.15,2013-04-24 10:26:00,
2013-04-24 06:32:00,45.0,43.4,30.12,NW,317,3.0,3.0,94,0.00,,,0.00,19,Wunderground v.1.15,2013-04-24 10:32:00,
2013-04-24 06:37:00,45.1,43.5,30.12,NW,315,3.0,4.0,94,0.00,,,0.00,26,Wunderground v.1.15,2013-04-24 10:37:00,
2013-04-24 06:46:00,45.3,43.7,30.12,NW,315,3.0,4.0,94,0.00,,,0.00,37,Wunderground v.1.15,2013-04-24 10:46:00,
2013-04-24 06:52:00,45.5,43.9,30.12,WNW,302,4.0,5.0,94,0.00,,,0.00,49,Wunderground v.1.15,2013-04-24 10:52:00,
2013-04-24 06:57:00,45.7,44.1,30.12,WNW,297,4.0,7.0,94,0.00,,,0.00,62,Wunderground v.1.15,2013-04-24 10:57:00,
2013-04-24 07:05:00,45.9,44.3,30.12,WNW,285,5.0,9.0,94,0.00,,,0.00,84,Wunderground v.1.15,2013-04-24 11:05:00,
2013-04-24 07:12:00,46.0,44.4,30.12,WSW,252,5.0,7.0,94,0.00,,,0.00,88,Wunderground v.1.15,2013-04-24 11:12:00,
2013-04-24 07:18:00,46.0,44.4,30.13,WSW,254,7.0,8.0,94,0.00,,,0.00,83,Wunderground v.1.15,2013-04-24 11:18:00,
2013-04-24 07:23:00,46.1,44.5,30.13,WSW,250,6.0,10.0,94,0.00,,,0.00,86,Wunderground v.1.15,2013-04-24 11:23:00,
2013-04-24 07:30:00,46.3,44.9,30.13,WSW,249,5.0,9.0,95,0.00,,,0.00,107,Wunderground v.1.15,2013-04-24 11:30:00,
2013-04-24 07:35:00,46.5,45.1,30.14,WSW,248,6.0,9.0,95,0.00,,,0.00,116,Wunderground v.1.15,2013-04-24 11:35:00,
2013-04-24 07:42:00,46.9,45.5,30.13,WSW,248,5.0,5.0,95,0.00,,,0.00,149,Wunderground v.1.15,2013-04-24 11:42:00,
2013-04-24 07:47:00,47.2,45.8,30.13,WSW,248,3.0,5.0,95,0.00,,,0.00,132,Wunderground v.1.15,2013-04-24 11:47:00,
2013-04-24 07:54:00,47.6,46.2,30.13,WSW,248,3.0,6.0,95,0.00,,,0.00,139,Wunderground v.1.15,2013-04-24 11:54:00,
2013-04-24 08:00:00,47.9,46.5,30.12,SW,228,4.0,12.0,95,0.00,,,0.00,146,Wunderground v.1.15,2013-04-24 12:00:00,
2013-04-24 08:05:00,48.2,46.8,30.12,SW,229,5.0,12.0,95,0.00,,,0.00,139,Wunderground v.1.15,2013-04-24 12:05:00,
2013-04-24 08:12:00,48.3,46.9,30.12,SW,232,5.0,7.0,95,0.00,,,0.00,165,Wunderground v.1.15,2013-04-24 12:12:00,
2013-04-24 08:18:00,48.5,47.1,30.12,SW,217,5.0,12.0,95,0.00,,,0.00,162,Wunderground v.1.15,2013-04-24 12:18:00,
2013-04-24 08:24:00,48.6,47.2,30.12,WSW,254,6.0,8.0,95,0.00,,,0.00,178,Wunderground v.1.15,2013-04-24 12:24:00,
2013-04-24 08:30:00,48.8,47.4,30.12,WSW,248,6.0,8.0,95,0.00,,,0.00,176,Wunderground v.1.15,2013-04-24 12:30:00,
2013-04-24 08:35:00,49.0,47.6,30.12,SW,216,5.0,8.0,95,0.00,,,0.00,169,Wunderground v.1.15,2013-04-24 12:35:00,
2013-04-24 08:41:00,49.2,47.8,30.12,SW,229,6.0,6.0,95,0.00,,,0.00,200,Wunderground v.1.15,2013-04-24 12:41:00,
2013-04-24 08:48:00,49.4,48.0,30.12,WSW,252,5.0,6.0,95,0.00,,,0.00,230,Wunderground v.1.15,2013-04-24 12:48:00,
2013-04-24 08:53:00,49.7,48.3,30.12,WSW,240,6.0,7.0,95,0.00,,,0.00,271,Wunderground v.1.15,2013-04-24 12:53:00,
2013-04-24 09:00:00,50.0,48.3,30.12,SW,236,7.0,10.0,94,0.00,,,0.00,243,Wunderground v.1.15,2013-04-24 13:00:00,
2013-04-24 09:06:00,50.6,48.9,30.11,SW,220,7.0,10.0,94,0.00,,,0.00,334,Wunderground v.1.15,2013-04-24 13:06:00,
2013-04-24 09:11:00,51.0,49.0,30.11,SW,217,5.0,7.0,93,0.00,,,0.00,276,Wunderground v.1.15,2013-04-24 13:11:00,
2013-04-24 09:18:00,51.0,48.8,30.12,SW,221,7.0,13.0,92,0.00,,,0.00,267,Wunderground v.1.15,2013-04-24 13:18:00,
2013-04-24 09:26:00,51.3,49.1,30.12,SSW,209,7.0,7.0,92,0.00,,,0.00,353,Wunderground v.1.15,2013-04-24 13:26:00,
2013-04-24 09:32:00,51.9,49.6,30.12,SSW,210,6.0,7.0,92,0.00,,,0.00,341,Wunderground v.1.15,2013-04-24 13:32:00,
2013-04-24 09:38:00,52.1,49.6,30.11,SSW,211,5.0,7.0,91,0.00,,,0.00,353,Wunderground v.1.15,2013-04-24 13:38:00,
2013-04-24 09:46:00,52.1,49.6,30.11,SSW,211,7.0,9.0,91,0.00,,,0.00,415,Wunderground v.1.15,2013-04-24 13:46:00,
2013-04-24 09:52:00,52.2,49.4,30.11,SW,225,8.0,11.0,90,0.00,,,0.00,392,Wunderground v.1.15,2013-04-24 13:52:00,
2013-04-24 09:57:00,52.4,49.6,30.11,SW,215,8.0,11.0,90,0.00,,,0.00,397,Wunderground v.1.15,2013-04-24 13:57:00,
2013-04-24 10:04:00,52.4,49.6,30.10,SSW,213,8.0,8.0,90,0.00,,,0.00,338,Wunderground v.1.15,2013-04-24 14:04:00,
2013-04-24 10:10:00,52.8,49.6,30.10,SW,215,8.0,8.0,89,0.00,,,0.00,462,Wunderground v.1.15,2013-04-24 14:10:00,
2013-04-24 10:15:00,53.2,50.0,30.10,SW,217,8.0,11.0,89,0.00,,,0.00,573,Wunderground v.1.15,2013-04-24 14:15:00,
2013-04-24 10:22:00,54.0,50.2,30.10,SSW,212,8.0,8.0,87,0.00,,,0.00,740,Wunderground v.1.15,2013-04-24 14:22:00,
2013-04-24 10:28:00,54.1,50.3,30.10,SW,221,8.0,11.0,87,0.00,,,0.00,687,Wunderground v.1.15,2013-04-24 14:28:00,
2013-04-24 10:33:00,54.5,50.4,30.10,SW,217,8.0,8.0,86,0.00,,,0.00,712,Wunderground v.1.15,2013-04-24 14:33:00,
2013-04-24 10:40:00,54.6,50.5,30.10,SW,218,7.0,7.0,86,0.00,,,0.00,722,Wunderground v.1.15,2013-04-24 14:40:00,
2013-04-24 10:45:00,55.4,50.6,30.09,SW,218,6.0,7.0,84,0.00,,,0.00,729,Wunderground v.1.15,2013-04-24 14:45:00,
2013-04-24 10:51:00,56.5,51.1,30.09,SW,219,5.0,7.0,82,0.00,,,0.00,749,Wunderground v.1.15,2013-04-24 14:51:00,
2013-04-24 10:58:00,55.2,50.1,30.09,SW,225,6.0,10.0,83,0.00,,,0.00,759,Wunderground v.1.15,2013-04-24 14:58:00,
2013-04-24 11:03:00,54.4,50.3,30.09,SSW,212,7.0,8.0,86,0.00,,,0.00,768,Wunderground v.1.15,2013-04-24 15:03:00,
2013-04-24 11:10:00,54.4,50.3,30.08,SW,219,7.0,9.0,86,0.00,,,0.00,786,Wunderground v.1.15,2013-04-24 15:10:00,
2013-04-24 11:16:00,54.8,50.7,30.08,SW,220,7.0,10.0,86,0.00,,,0.00,791,Wunderground v.1.15,2013-04-24 15:16:00,
2013-04-24 11:22:00,54.8,50.7,30.07,SW,236,7.0,7.0,86,0.00,,,0.00,802,Wunderground v.1.15,2013-04-24 15:22:00,
2013-04-24 11:27:00,54.9,50.8,30.07,SW,236,7.0,11.0,86,0.00,,,0.00,810,Wunderground v.1.15,2013-04-24 15:27:00,
2013-04-24 11:34:00,54.4,50.3,30.07,SW,230,9.0,12.0,86,0.00,,,0.00,823,Wunderground v.1.15,2013-04-24 15:34:00,
2013-04-24 11:39:00,54.6,50.8,30.06,SSW,213,9.0,9.0,87,0.00,,,0.00,828,Wunderground v.1.15,2013-04-24 15:39:00,
2013-04-24 11:46:00,54.9,51.1,30.06,SSE,147,8.0,11.0,87,0.00,,,0.00,831,Wunderground v.1.15,2013-04-24 15:46:00,
2013-04-24 11:52:00,55.0,51.2,30.06,South,187,8.0,8.0,87,0.00,,,0.00,849,Wunderground v.1.15,2013-04-24 15:52:00,
2013-04-24 11:58:00,55.0,51.2,30.05,SW,219,8.0,12.0,87,0.00,,,0.00,849,Wunderground v.1.15,2013-04-24 15:58:00,
2013-04-24 12:04:00,54.8,51.0,30.05,SSW,208,10.0,13.0,87,0.00,,,0.00,856,Wunderground v.1.15,2013-04-24 16:04:00,
2013-04-24 12:09:00,55.0,51.2,30.05,SW,220,10.0,14.0,87,0.00,,,0.00,863,Wunderground v.1.15,2013-04-24 16:09:00,
2013-04-24 12:16:00,54.9,51.1,30.04,SW,222,11.0,15.0,87,0.00,,,0.00,867,Wunderground v.1.15,2013-04-24 16:16:00,
2013-04-24 12:22:00,55.1,51.3,30.04,SW,220,11.0,12.0,87,0.00,,,0.00,875,Wunderground v.1.15,2013-04-24 16:22:00,
2013-04-24 12:28:00,55.3,51.5,30.03,SSE,163,11.0,12.0,87,0.00,,,0.00,875,Wunderground v.1.15,2013-04-24 16:28:00,
2013-04-24 12:36:00,55.1,51.3,30.03,SW,225,12.0,13.0,87,0.00,,,0.00,884,Wunderground v.1.15,2013-04-24 16:36:00,
2013-04-24 12:42:00,55.3,51.5,30.03,SW,231,12.0,17.0,87,0.00,,,0.01,886,Wunderground v.1.15,2013-04-24 16:42:00,
2013-04-24 12:48:00,55.3,51.5,30.02,SW,232,13.0,17.0,87,0.00,,,0.01,888,Wunderground v.1.15,2013-04-24 16:48:00,
2013-04-24 12:56:00,55.8,52.0,30.01,SSW,213,12.0,16.0,87,0.00,,,0.01,889,Wunderground v.1.15,2013-04-24 16:56:00,
2013-04-24 13:01:00,55.7,51.9,30.01,SSW,210,10.0,10.0,87,0.00,,,0.01,886,Wunderground v.1.15,2013-04-24 17:01:00,
2013-04-24 13:08:00,55.4,51.3,30.01,SW,222,11.0,17.0,86,0.00,,,0.01,891,Wunderground v.1.15,2013-04-24 17:08:00,
2013-04-24 13:13:00,55.5,51.7,30.01,SW,224,11.0,14.0,87,0.00,,,0.01,889,Wunderground v.1.15,2013-04-24 17:13:00,
2013-04-24 13:20:00,55.6,51.8,30.00,SW,221,11.0,14.0,87,0.00,,,0.01,889,Wunderground v.1.15,2013-04-24 17:20:00,
2013-04-24 13:25:00,55.5,51.7,30.00,SW,232,12.0,18.0,87,0.00,,,0.01,889,Wunderground v.1.15,2013-04-24 17:25:00,
2013-04-24 13:31:00,55.5,51.7,30.00,SW,234,12.0,14.0,87,0.00,,,0.01,886,Wunderground v.1.15,2013-04-24 17:31:00,
2013-04-24 13:38:00,55.7,52.2,30.00,SW,216,13.0,17.0,88,0.00,,,0.01,884,Wunderground v.1.15,2013-04-24 17:38:00,
2013-04-24 13:43:00,55.6,51.8,30.00,SSW,211,13.0,16.0,87,0.00,,,0.01,881,Wunderground v.1.15,2013-04-24 17:43:00,
2013-04-24 13:50:00,55.7,51.9,29.99,SW,228,12.0,19.0,87,0.00,,,0.01,879,Wunderground v.1.15,2013-04-24 17:50:00,
2013-04-24 13:56:00,55.6,51.8,29.99,South,174,10.0,19.0,87,0.00,,,0.01,882,Wunderground v.1.15,2013-04-24 17:56:00,
2013-04-24 14:01:00,55.4,51.6,29.99,SSW,213,10.0,15.0,87,0.00,,,0.01,766,Wunderground v.1.15,2013-04-24 18:01:00,
2013-04-24 14:08:00,55.2,51.7,29.99,SSW,206,13.0,20.0,88,0.00,,,0.01,886,Wunderground v.1.15,2013-04-24 18:08:00,
2013-04-24 14:14:00,55.1,51.6,29.99,SSE,149,14.0,16.0,88,0.00,,,0.01,858,Wunderground v.1.15,2013-04-24 18:14:00,
2013-04-24 14:20:00,55.2,52.0,29.98,SW,223,13.0,13.0,89,0.00,,,0.01,854,Wunderground v.1.15,2013-04-24 18:20:00,
2013-04-24 14:26:00,55.1,51.9,29.98,SW,234,14.0,14.0,89,0.00,,,0.01,823,Wunderground v.1.15,2013-04-24 18:26:00,
2013-04-24 14:31:00,55.1,51.9,29.98,SW,224,14.0,18.0,89,0.00,,,0.01,809,Wunderground v.1.15,2013-04-24 18:31:00,
2013-04-24 14:38:00,55.1,51.9,29.97,SW,222,15.0,18.0,89,0.00,,,0.01,788,Wunderground v.1.15,2013-04-24 18:38:00,
2013-04-24 14:43:00,55.1,51.9,29.96,SW,225,13.0,14.0,89,0.00,,,0.01,816,Wunderground v.1.15,2013-04-24 18:43:00,
2013-04-24 14:50:00,55.0,51.8,29.96,SW,233,14.0,15.0,89,0.00,,,0.01,807,Wunderground v.1.15,2013-04-24 18:50:00,
2013-04-24 14:56:00,54.9,51.7,29.96,SW,227,14.0,15.0,89,0.00,,,0.01,793,Wunderground v.1.15,2013-04-24 18:56:00,
2013-04-24 15:01:00,54.8,51.6,29.96,SSW,206,15.0,16.0,89,0.00,,,0.01,789,Wunderground v.1.15,2013-04-24 19:01:00,
2013-04-24 15:08:00,54.9,51.7,29.96,SW,230,14.0,16.0,89,0.00,,,0.01,770,Wunderground v.1.15,2013-04-24 19:08:00,
2013-04-24 15:14:00,54.8,51.9,29.96,SSE,161,14.0,14.0,90,0.00,,,0.01,770,Wunderground v.1.15,2013-04-24 19:14:00,
2013-04-24 15:19:00,54.6,51.7,29.96,WSW,242,14.0,18.0,90,0.00,,,0.01,754,Wunderground v.1.15,2013-04-24 19:19:00,
2013-04-24 15:26:00,54.8,51.9,29.96,SW,217,14.0,18.0,90,0.00,,,0.01,744,Wunderground v.1.15,2013-04-24 19:26:00,
2013-04-24 15:32:00,55.1,52.2,29.96,SW,225,14.0,18.0,90,0.00,,,0.01,733,Wunderground v.1.15,2013-04-24 19:32:00,
2013-04-24 15:38:00,55.7,52.8,29.95,SW,217,13.0,18.0,90,0.00,,,0.01,721,Wunderground v.1.15,2013-04-24 19:38:00,
2013-04-24 15:44:00,55.7,52.2,29.95,SW,217,13.0,14.0,88,0.00,,,0.01,696,Wunderground v.1.15,2013-04-24 19:44:00,
2013-04-24 15:49:00,55.3,52.1,29.95,SSW,198,14.0,14.0,89,0.00,,,0.01,610,Wunderground v.1.15,2013-04-24 19:49:00,
2013-04-24 15:56:00,55.5,52.3,29.95,SW,226,13.0,14.0,89,0.00,,,0.01,677,Wunderground v.1.15,2013-04-24 19:56:00,
2013-04-24 16:02:00,55.8,52.6,29.95,SW,223,12.0,20.0,89,0.00,,,0.01,666,Wunderground v.1.15,2013-04-24 20:02:00,
2013-04-24 16:07:00,55.3,52.1,29.94,SW,216,13.0,20.0,89,0.00,,,0.01,650,Wunderground v.1.15,2013-04-24 20:07:00,
2013-04-24 16:14:00,55.0,52.1,29.94,SW,218,14.0,16.0,90,0.00,,,0.01,599,Wunderground v.1.15,2013-04-24 20:14:00,
2013-04-24 16:19:00,55.2,52.0,29.95,South,169,12.0,12.0,89,0.00,,,0.01,545,Wunderground v.1.15,2013-04-24 20:19:00,
2013-04-24 16:26:00,55.1,51.9,29.94,SW,227,14.0,16.0,89,0.00,,,0.01,596,Wunderground v.1.15,2013-04-24 20:26:00,
2013-04-24 16:32:00,55.0,52.1,29.94,SW,218,14.0,17.0,90,0.00,,,0.01,554,Wunderground v.1.15,2013-04-24 20:32:00,
2013-04-24 16:37:00,54.9,52.0,29.94,SW,219,14.0,17.0,90,0.00,,,0.01,429,Wunderground v.1.15,2013-04-24 20:37:00,
2013-04-24 16:46:00,54.2,51.3,29.94,SSW,210,13.0,14.0,90,0.00,,,0.01,476,Wunderground v.1.15,2013-04-24 20:46:00,
2013-04-24 16:51:00,54.1,51.5,29.94,SW,221,14.0,19.0,91,0.00,,,0.01,294,Wunderground v.1.15,2013-04-24 20:51:00,
2013-04-24 16:58:00,54.0,51.4,29.93,SW,223,15.0,19.0,91,0.00,,,0.01,527,Wunderground v.1.15,2013-04-24 20:58:00,
2013-04-24 17:05:00,54.0,51.7,29.93,SW,215,15.0,20.0,92,0.00,,,0.01,487,Wunderground v.1.15,2013-04-24 21:05:00,
2013-04-24 17:11:00,54.3,52.0,29.93,SW,217,14.0,14.0,92,0.00,,,0.01,506,Wunderground v.1.15,2013-04-24 21:11:00,
2013-04-24 17:17:00,55.1,53.1,29.93,SW,225,14.0,14.0,93,0.00,,,0.01,374,Wunderground v.1.15,2013-04-24 21:17:00,
2013-04-24 17:25:00,55.9,53.3,29.92,SW,215,15.0,16.0,91,0.00,,,0.01,411,Wunderground v.1.15,2013-04-24 21:25:00,
2013-04-24 17:32:00,56.4,53.5,29.92,SW,221,14.0,15.0,90,0.00,,,0.01,338,Wunderground v.1.15,2013-04-24 21:32:00,
2013-04-24 17:38:00,56.4,53.5,29.92,SW,215,14.0,17.0,90,0.00,,,0.01,221,Wunderground v.1.15,2013-04-24 21:38:00,
2013-04-24 17:44:00,56.5,53.3,29.93,SW,232,12.0,16.0,89,0.00,,,0.01,162,Wunderground v.1.15,2013-04-24 21:44:00,
2013-04-24 17:50:00,56.3,53.1,29.92,SW,224,12.0,14.0,89,0.00,,,0.01,214,Wunderground v.1.15,2013-04-24 21:50:00,
2013-04-24 17:55:00,55.8,52.6,29.92,SW,216,12.0,14.0,89,0.00,,,0.01,186,Wunderground v.1.15,2013-04-24 21:55:00,
2013-04-24 18:02:00,55.9,53.0,29.92,SW,214,11.0,12.0,90,0.00,,,0.01,160,Wunderground v.1.15,2013-04-24 22:02:00,
2013-04-24 18:08:00,55.9,52.7,29.92,SW,217,10.0,12.0,89,0.00,,,0.01,188,Wunderground v.1.15,2013-04-24 22:08:00,
2013-04-24 18:13:00,56.3,53.7,29.92,SW,214,9.0,11.0,91,0.00,,,0.01,146,Wunderground v.1.15,2013-04-24 22:13:00,
2013-04-24 18:20:00,58.1,55.5,29.92,SSW,210,8.0,14.0,91,0.00,,,0.01,121,Wunderground v.1.15,2013-04-24 22:20:00,
2013-04-24 18:26:00,59.3,56.1,29.92,SW,227,10.0,16.0,89,0.00,,,0.01,111,Wunderground v.1.15,2013-04-24 22:26:00,
2013-04-24 18:31:00,59.8,55.9,29.91,SSW,208,11.0,14.0,87,0.00,,,0.01,95,Wunderground v.1.15,2013-04-24 22:31:00,
2013-04-24 18:38:00,60.2,55.7,29.91,SSW,199,12.0,14.0,85,0.00,,,0.01,81,Wunderground v.1.15,2013-04-24 22:38:00,
2013-04-24 18:43:00,60.2,55.7,29.91,SSW,207,11.0,15.0,85,0.00,,,0.01,72,Wunderground v.1.15,2013-04-24 22:43:00,
2013-04-24 18:50:00,60.1,55.6,29.90,SSW,213,12.0,18.0,85,0.00,,,0.01,62,Wunderground v.1.15,2013-04-24 22:50:00,
2013-04-24 18:56:00,59.9,55.4,29.90,SSW,199,11.0,18.0,85,0.00,,,0.01,49,Wunderground v.1.15,2013-04-24 22:56:00,
2013-04-24 19:01:00,59.9,55.4,29.90,SSW,209,10.0,10.0,85,0.00,,,0.01,39,Wunderground v.1.15,2013-04-24 23:01:00,
2013-04-24 19:08:00,60.0,55.5,29.90,SSW,202,11.0,15.0,85,0.00,,,0.01,28,Wunderground v.1.15,2013-04-24 23:08:00,
2013-04-24 19:16:00,60.2,55.3,29.90,SW,217,11.0,14.0,84,0.00,,,0.01,16,Wunderground v.1.15,2013-04-24 23:16:00,
2013-04-24 19:22:00,60.2,55.3,29.90,SSW,200,9.0,10.0,84,0.00,,,0.01,12,Wunderground v.1.15,2013-04-24 23:22:00,
2013-04-24 19:28:00,60.1,55.2,29.89,SSW,208,8.0,10.0,84,0.00,,,0.01,11,Wunderground v.1.15,2013-04-24 23:28:00,
2013-04-24 19:36:00,60.1,55.2,29.89,SSW,208,10.0,16.0,84,0.00,,,0.01,7,Wunderground v.1.15,2013-04-24 23:36:00,
2013-04-24 19:41:00,60.1,55.2,29.89,SSW,211,10.0,12.0,84,0.00,,,0.01,0,Wunderground v.1.15,2013-04-24 23:41:00,
2013-04-24 19:47:00,60.2,55.3,29.89,SSW,212,10.0,12.0,84,0.00,,,0.01,0,Wunderground v.1.15,2013-04-24 23:47:00,
2013-04-24 19:56:00,60.2,55.3,29.89,SW,215,10.0,14.0,84,0.00,,,0.01,0,Wunderground v.1.15,2013-04-24 23:56:00,
2013-04-24 20:02:00,60.1,55.2,29.89,SSW,201,12.0,20.0,84,0.00,,,0.01,0,Wunderground v.1.15,2013-04-25 00:02:00,
2013-04-24 20:08:00,60.1,55.2,29.89,SW,218,12.0,20.0,84,0.00,,,0.01,0,Wunderground v.1.15,2013-04-25 00:08:00,
2013-04-24 20:14:00,60.1,55.2,29.89,SSW,212,11.0,12.0,84,0.00,,,0.01,0,Wunderground v.1.15,2013-04-25 00:14:00,
2013-04-24 20:19:00,60.1,55.2,29.90,SW,216,11.0,15.0,84,0.00,,,0.01,0,Wunderground v.1.15,2013-04-25 00:19:00,
2013-04-24 20:26:00,60.0,55.2,29.90,SW,219,12.0,15.0,84,0.00,,,0.01,0,Wunderground v.1.15,2013-04-25 00:26:00,
2013-04-24 20:32:00,60.0,55.2,29.90,WSW,238,12.0,12.0,84,0.00,,,0.01,0,Wunderground v.1.15,2013-04-25 00:32:00,
2013-04-24 20:38:00,60.0,55.2,29.91,SW,225,13.0,18.0,84,0.00,,,0.01,0,Wunderground v.1.15,2013-04-25 00:38:00,
2013-04-24 20:44:00,60.1,55.2,29.90,SSW,205,12.0,16.0,84,0.00,,,0.01,0,Wunderground v.1.15,2013-04-25 00:44:00,
2013-04-24 20:49:00,60.1,55.2,29.91,SSW,209,10.0,10.0,84,0.00,,,0.01,0,Wunderground v.1.15,2013-04-25 00:49:00,
2013-04-24 20:56:00,60.2,55.3,29.90,SSW,200,10.0,11.0,84,0.00,,,0.01,0,Wunderground v.1.15,2013-04-25 00:56:00,
2013-04-24 21:02:00,60.2,55.3,29.90,SW,221,11.0,11.0,84,0.00,,,0.01,0,Wunderground v.1.15,2013-04-25 01:02:00,
2013-04-24 21:07:00,60.2,55.3,29.90,SSW,213,10.0,14.0,84,0.00,,,0.01,0,Wunderground v.1.15,2013-04-25 01:07:00,
2013-04-24 21:14:00,60.2,55.0,29.90,South,188,10.0,12.0,83,0.00,,,0.01,0,Wunderground v.1.15,2013-04-25 01:14:00,
2013-04-24 21:19:00,60.2,55.3,29.91,SSW,207,11.0,13.0,84,0.00,,,0.01,0,Wunderground v.1.15,2013-04-25 01:19:00,
2013-04-24 21:26:00,60.3,55.4,29.91,SSW,213,11.0,13.0,84,0.00,,,0.01,0,Wunderground v.1.15,2013-04-25 01:26:00,
2013-04-24 21:31:00,60.3,55.4,29.92,SW,233,11.0,15.0,84,0.00,,,0.01,0,Wunderground v.1.15,2013-04-25 01:31:00,
2013-04-24 21:38:00,60.3,55.4,29.92,SSW,198,12.0,15.0,84,0.00,,,0.01,0,Wunderground v.1.15,2013-04-25 01:38:00,
2013-04-24 21:46:00,60.2,55.3,29.93,SSW,198,9.0,11.0,84,0.00,,,0.01,0,Wunderground v.1.15,2013-04-25 01:46:00,
2013-04-24 21:52:00,60.2,55.3,29.93,SSW,208,8.0,13.0,84,0.00,,,0.01,0,Wunderground v.1.15,2013-04-25 01:52:00,
2013-04-24 21:58:00,60.2,55.3,29.93,SSW,208,8.0,13.0,84,0.00,,,0.01,0,Wunderground v.1.15,2013-04-25 01:58:00,
2013-04-24 22:06:00,60.2,55.7,29.93,SSW,206,8.0,11.0,85,0.00,,,0.01,0,Wunderground v.1.15,2013-04-25 02:06:00,
2013-04-24 22:11:00,60.2,55.7,29.93,SW,225,9.0,9.0,85,0.00,,,0.01,0,Wunderground v.1.15,2013-04-25 02:11:00,
2013-04-24 22:18:00,60.2,55.7,29.93,SSW,205,8.0,13.0,85,0.00,,,0.01,0,Wunderground v.1.15,2013-04-25 02:18:00,
2013-04-24 22:24:00,60.2,55.7,29.93,SSW,199,8.0,8.0,85,0.00,,,0.01,0,Wunderground v.1.15,2013-04-25 02:24:00,
2013-04-24 22:30:00,60.2,55.7,29.93,SSW,204,7.0,7.0,85,0.00,,,0.01,0,Wunderground v.1.15,2013-04-25 02:30:00,
2013-04-24 22:35:00,60.1,55.6,29.93,SSW,209,7.0,10.0,85,0.00,,,0.01,0,Wunderground v.1.15,2013-04-25 02:35:00,
2013-04-24 22:42:00,60.2,55.7,29.93,SSW,196,8.0,8.0,85,0.00,,,0.01,0,Wunderground v.1.15,2013-04-25 02:42:00,
2013-04-24 22:47:00,60.2,55.7,29.93,SSW,211,9.0,10.0,85,0.00,,,0.01,0,Wunderground v.1.15,2013-04-25 02:47:00,
2013-04-24 22:54:00,60.2,55.7,29.92,SSW,202,8.0,11.0,85,0.00,,,0.01,0,Wunderground v.1.15,2013-04-25 02:54:00,
2013-04-24 23:00:00,60.2,55.7,29.92,SSW,212,8.0,8.0,85,0.00,,,0.01,0,Wunderground v.1.15,2013-04-25 03:00:00,
2013-04-24 23:05:00,60.1,55.6,29.92,SSW,209,7.0,8.0,85,0.00,,,0.01,0,Wunderground v.1.15,2013-04-25 03:05:00,
2013-04-24 23:12:00,60.1,55.6,29.92,SW,232,8.0,8.0,85,0.00,,,0.01,0,Wunderground v.1.15,2013-04-25 03:12:00,
2013-04-24 23:17:00,60.2,55.7,29.92,SSW,203,7.0,8.0,85,0.00,,,0.01,0,Wunderground v.1.15,2013-04-25 03:17:00,
2013-04-24 23:26:00,60.2,55.7,29.92,SW,224,8.0,8.0,85,0.00,,,0.01,0,Wunderground v.1.15,2013-04-25 03:26:00,
2013-04-24 23:31:00,60.2,55.7,29.92,SSW,202,7.0,10.0,85,0.00,,,0.01,0,Wunderground v.1.15,2013-04-25 03:31:00,
2013-04-24 23:38:00,60.2,56.0,29.92,SW,223,7.0,10.0,86,0.00,,,0.01,0,Wunderground v.1.15,2013-04-25 03:38:00,
2013-04-24 23:44:00,60.3,55.8,29.92,SW,221,7.0,7.0,85,0.00,,,0.01,0,Wunderground v.1.15,2013-04-25 03:44:00,
2013-04-24 23:49:00,60.3,55.8,29.92,SSW,208,6.0,6.0,85,0.00,,,0.01,0,Wunderground v.1.15,2013-04-25 03:49:00,
2013-04-24 23:56:00,60.2,55.7,29.92,SW,217,6.0,9.0,85,0.00,,,0.01,0,Wunderground v.1.15,2013-04-25 03:56:00,